Theta_e
292 283 282 283 290 292 298 300 300 310 329 326 323 336 330 335 343 344 348 358 359 361 359 359 357 358 358 359 358 359 360 360
288 283 287 288 291 293 296 298 300 301 300 310 338 339 339 337 341 340 341 357 361 361 359 359 358 357 358 358 358 359 359 359
284 286 289 291 294 294 294 295 298 302 299 308 336 342 341 341 340 341 353 356 360 361 359 359 358 357 358 358 358 358 359 358
282 286 292 294 295 295 294 296 300 301 303 307 339 338 341 350 349 353 354 355 358 360 359 358 358 358 358 358 357 358 358 358
286 289 293 296 298 295 296 298 300 303 299 320 338 346 351 351 353 355 355 355 357 357 357 359 358 357 357 357 357 358 357 357
288 289 290 297 298 297 298 300 305 306 300 300 320 349 349 350 351 352 354 354 354 355 354 353 354 358 357 358 358 357 357 356
286 289 291 296 295 299 303 301 302 304 304 315 339 348 346 347 349 351 352 351 352 353 351 351 352 354 357 356 357 357 356 356
292 292 292 293 294 297 298 299 299 302 308 343 345 345 342 341 341 346 348 349 351 351 350 349 351 351 351 352 351 350 349 349
292 294 294 293 294 297 296 294 298 300 305 333 334 339 343 343 343 344 347 348 349 350 349 347 346 347 348 347 347 346 345 345
293 296 295 293 295 295 296 297 302 303 306 326 331 324 323 343 344 343 344 346 347 349 348 345 345 347 346 345 344 342 341 341
297 296 295 296 293 294 294 299 301 302 306 315 323 322 323 331 343 344 342 343 345 348 348 344 345 345 344 343 341 339 338 338
295 294 293 292 294 293 296 300 300 302 304 315 318 319 325 329 337 342 342 341 344 346 346 343 342 341 342 340 337 336 336 337
292 294 294 296 293 291 297 301 299 299 302 307 312 321 323 327 331 339 342 343 343 344 345 342 339 339 338 337 335 335 335 336
290 295 296 294 287 294 299 300 299 300 300 302 308 315 324 328 332 339 340 342 343 344 341 340 336 337 337 335 333 333 336 337
289 294 294 293 289 295 299 299 298 298 299 299 304 316 322 328 333 338 339 339 341 343 338 336 334 333 333 333 333 333 337 339
286 291 291 289 290 294 297 298 297 298 299 297 299 309 321 329 336 336 335 337 339 337 336 333 334 331 333 333 334 336 338 340
290 294 290 290 291 293 296 295 295 296 298 297 297 302 319 329 336 335 334 333 334 332 331 331 331 329 332 331 337 339 340 342
290 293 290 289 290 294 296 294 295 296 297 298 297 299 308 326 333 333 332 332 332 331 330 331 333 333 335 337 340 341 343 345
288 292 292 289 287 290 293 294 296 297 299 299 298 299 310 328 332 332 332 331 332 331 329 331 334 339 340 340 338 338 337 338
290 288 281 289 279 287 289 291 293 294 296 298 298 300 308 326 329 331 332 334 334 333 333 334 340 338 338 337 335 337 334 331
Wind_Speed
5 4 6 5 5 2 6 9 5 3 3 4 6 4 6 4 12 9 8 12 17 24 23 20 20 20 19 19 18 17 16 16
5 5 5 5 2 2 7 6 5 2 7 6 8 6 4 9 13 7 5 8 17 26 23 23 21 19 19 20 18 17 16 15
3 3 5 4 4 4 4 4 6 6 5 6 3 2 5 10 13 9 6 6 12 20 22 22 21 20 19 19 17 16 15 15
2 3 4 6 5 3 2 4 9 7 11 8 6 2 5 7 10 17 14 8 11 15 17 19 19 19 17 17 16 15 15 14
4 3 4 4 4 2 3 6 6 8 5 7 8 8 4 7 8 12 14 11 10 11 12 15 17 18 17 17 16 13 12 12
3 4 5 3 6 3 3 5 8 2 5 10 11 5 3 6 7 10 12 12 12 10 9 8 7 14 16 16 16 14 12 11
3 4 5 5 6 2 3 6 4 6 7 11 25 11 8 8 7 9 11 11 11 11 8 8 7 9 11 16 15 14 12 10
6 3 6 4 4 13 4 6 6 12 8 7 9 3 8 13 12 12 14 13 12 12 9 9 7 7 6 6 4 4 5 5
5 5 5 4 5 4 3 6 10 9 10 3 5 7 5 6 8 12 12 11 12 12 11 10 7 5 3 3 3 3 5 5
5 4 6 5 4 7 7 10 11 11 9 5 6 4 6 6 5 7 7 10 11 11 10 9 5 6 6 6 4 3 4 6
7 9 8 7 8 8 6 11 11 10 10 9 7 7 6 5 4 4 6 8 11 12 11 8 8 6 5 5 5 4 4 5
7 7 5 5 7 2 3 7 8 7 8 7 7 9 5 8 8 8 7 7 7 11 11 8 7 7 6 3 5 5 4 4
4 3 5 6 13 6 3 5 6 9 10 9 10 7 13 12 8 9 7 7 8 11 8 10 9 8 6 6 4 4 4 6
5 5 4 3 16 2 7 7 6 9 9 9 13 9 10 9 5 6 11 10 9 9 7 8 8 7 6 5 5 4 4 4
7 2 3 1 19 4 13 3 6 6 10 13 10 11 8 11 6 8 13 13 12 11 9 7 7 5 5 6 5 4 3 3
6 6 3 7 23 10 6 7 8 7 9 10 13 14 9 11 10 6 10 13 13 9 10 7 6 5 4 4 3 3 3 4
10 12 3 12 22 19 14 7 6 8 9 10 12 13 9 10 7 11 8 14 14 11 8 8 6 5 4 5 3 3 3 6
8 10 4 9 18 23 15 10 6 8 10 11 9 9 12 7 10 13 11 13 11 12 8 8 7 6 3 5 3 3 3 4
11 6 6 7 17 15 8 9 8 7 12 9 11 11 10 8 11 10 8 9 11 12 9 8 7 5 5 6 5 3 3 4
13 4 5 4 12 11 7 12 7 8 9 13 11 10 11 10 10 11 13 13 14 14 11 8 11 8 12 7 7 3 4 4
Wind_Direction
116 126 181 210 227 216 314 310 323 314 205 204 234 205 243 137 158 136 148 162 163 145 147 157 157 152 150 144 144 144 143 142
103 202 249 214 158 323 331 329 314 239 267 293 208 180 216 129 145 130 179 181 173 149 153 157 157 158 153 148 152 148 149 147
74 261 271 252 246 261 323 278 287 323 286 262 257 245 89 125 133 128 120 164 177 153 155 158 157 160 158 152 156 154 153 150
189 255 266 274 257 257 295 332 305 345 315 259 339 218 142 112 142 144 144 152 164 158 158 161 156 158 162 154 158 155 154 156
159 204 309 265 336 101 339 329 300 309 280 287 348 356 75 113 119 132 134 144 160 151 164 166 162 161 161 157 155 155 156 156
211 196 250 302 345 283 18 297 312 35 285 303 306 155 112 105 123 134 132 146 154 148 161 154 166 168 161 159 157 153 159 163
238 170 248 292 321 218 271 267 300 267 298 297 299 150 129 144 142 144 136 155 161 153 158 145 152 173 164 163 158 154 162 168
214 230 245 279 287 297 262 270 273 288 290 9 42 125 174 188 176 168 160 166 163 159 160 154 165 160 138 156 134 130 136 146
260 265 279 263 286 246 245 279 241 253 291 318 50 327 269 266 267 184 166 174 172 167 156 159 161 130 126 113 126 133 142 137
288 295 312 278 255 283 206 237 247 266 262 268 213 270 294 296 253 215 199 176 174 171 160 157 133 156 150 145 141 148 146 139
268 280 261 269 245 255 249 268 273 268 277 235 214 211 239 209 287 199 203 199 186 176 168 159 148 148 151 153 152 150 150 147
276 278 261 282 262 209 295 323 313 298 272 260 230 219 224 232 194 190 191 205 205 186 176 159 151 143 145 144 147 149 148 171
294 312 276 297 292 187 93 42 359 316 292 275 256 227 214 207 196 163 189 186 196 206 186 167 149 153 148 153 158 159 169 177
292 328 298 43 274 238 23 28 341 303 300 279 270 246 233 190 161 172 156 181 181 188 183 183 151 152 153 149 159 174 181 173
306 240 265 265 289 163 316 283 271 274 291 288 274 277 240 194 176 175 166 159 168 179 168 179 147 140 146 158 163 187 166 160
263 286 264 286 281 280 254 250 234 240 272 279 279 264 248 177 165 175 164 152 160 157 158 167 156 136 138 156 144 161 161 164
274 277 267 275 283 295 289 266 245 228 260 267 266 268 275 163 165 152 177 154 159 149 152 159 156 159 145 156 144 144 164 170
280 268 184 270 275 287 290 277 237 212 247 252 268 282 273 211 172 167 174 157 144 144 163 175 177 174 148 139 124 120 137 124
259 288 273 277 280 287 287 274 283 252 232 241 236 247 248 229 192 162 171 151 167 144 163 177 149 121 111 103 98 94 89 99
260 271 251 164 288 279 267 280 282 269 238 243 223 229 234 206 212 171 177 171 170 147 172 173 155 151 163 157 151 145 133 128